Location: Katowice
(50.2611°N, 19.0242°E)
Time: 06:53:32
(UTC+02:00)

Transit 2A Rocket - Visible Passes

Search period start: 23 July 2019 00:00
Search period end: 02 August 2019 00:00
Orbit: 588 x 915 km, 66.7° (Epoch: 22 July)

Date Brightness Start Highest point End Pass type
(mag) Time Alt. Az. Time Alt. Az. Time Alt. Az.
23 Jul 6.7 02:35:32 14° SSE 02:39:39 28° ESE 02:44:24 10° NE visible
23 Jul 5.4 04:16:01 10° SW 04:21:58 67° NW 04:27:29 10° NNE visible
24 Jul 7.1 01:54:18 12° SE 01:57:25 18° ESE 02:01:09 10° ENE visible
24 Jul 5.3 03:34:13 14° SSW 03:39:23 84° SE 03:44:59 10° NE visible
25 Jul 7.5 01:14:02 10° ESE 01:15:18 11° ESE 01:16:33 10° E visible
25 Jul 5.6 02:52:56 20° S 02:56:54 56° ESE 03:02:23 10° NE visible
26 Jul 6.1 02:11:37 23° SSE 02:14:31 37° ESE 02:19:38 10° NE visible
26 Jul 5.7 03:51:31 11° WSW 03:57:04 53° NW 04:02:26 10° NNE visible
27 Jul 6.7 01:30:15 20° SE 01:32:14 24° ESE 01:36:40 10° ENE visible
27 Jul 5.3 03:10:09 19° SW 03:14:26 76° NW 03:19:58 10° NE visible
28 Jul 7.1 00:48:51 14° ESE 00:50:02 15° ESE 00:53:11 10° ENE visible
28 Jul 5.2 02:28:45 29° SSW 02:31:53 74° ESE 02:37:25 10° NE visible
28 Jul 6.5 04:09:52 10° W 04:14:59 31° NW 04:19:46 10° NNE visible
29 Jul 5.7 01:47:19 34° S 01:49:27 49° ESE 01:54:47 10° NE visible
29 Jul 6.0 03:27:13 13° WSW 03:32:12 42° NW 03:37:21 10° NNE visible
30 Jul 6.2 01:05:50 29° SE 01:07:05 32° ESE 01:11:59 10° NE visible
30 Jul 5.5 02:45:44 22° WSW 02:49:31 60° NW 02:54:55 10° NNE visible
31 Jul 6.7 00:24:20 20° ESE 00:24:50 21° ESE 00:28:52 10° ENE visible
31 Jul 5.1 02:04:14 34° SW 02:06:55 86° NW 02:12:25 10° NE visible
31 Jul 6.8 03:45:29 10° W 03:50:13 26° NNW 03:54:40 10° NNE visible
31 Jul 7.2 23:42:47 13° ESE 23:42:47 13° ESE 23:44:59 10° E visible
01 Aug 5.2 01:22:40 44° S 01:24:24 64° ESE 01:29:51 10° NE visible
01 Aug 6.4 03:02:33 12° W 03:07:22 34° NW 03:12:15 10° NNE visible
